Weather History for Dumas, TX

Change the Weather History Date:

Wednesday, October 10, 2012

  Actual Average (KBGD) Record (KBGD)
Temperature  
Mean Temperature 48 °F 63 °F  
Max Temperature 62 °F 75 °F 95 °F (1965)
Min Temperature 33 °F 50 °F 29 °F (2009)
Degree Days  
Heating Degree Days 18 5  
Month to date heating degree days 38  
Since 1 July heating degree days 66  
Cooling Degree Days 0 2  
Month to date cooling degree days 30  
Year to date cooling degree days 1815  
Moisture  
Dew Point 37 °F    
Average Humidity 69    
Maximum Humidity 93    
Minimum Humidity 37    
Precipitation  
Precipitation 0.00 in 0.06 in 0.89 in (1985)
Month to date precipitation 0.68  
Year to date precipitation 19.07  
Snow  
Snow 0.00 in - - ()
Month to date snowfall  
Since 1 July snowfall  
Since 1 September snowfall  
Snow Depth -    
Sea Level Pressure  
Sea Level Pressure 30.19 in    
Wind  
Wind Speed 8 mph (SE)    
Max Wind Speed 16 mph    
Max Gust Speed 23 mph    
Visibility 8 miles    
Events      
T = Trace of Precipitation, MM = Missing Value Source: NWS Daily Summary

Daily Weather History Graph

Daily Weather History Graph

Search for Another Location

Airport:

Trip Planner

Search our weather history database for the weather conditions in past years. The results will help you decide how hot, cold, wet, or windy it might be!

Date:

Astronomy

Oct. 10, 2012 Rise Set
Actual Time 7:50 AM CDT 7:18 PM CDT
Civil Twilight 7:25 AM CDT 7:43 PM CDT
Nautical Twilight 6:55 AM CDT 8:13 PM CDT
Astronomical Twilight 6:25 AM CDT 8:43 PM CDT
Moon 2:38 AM CDT (10/10) 4:13 PM CDT (10/10)
Length of Visible Light 12h 18m
Length of Day
11h 27m
Waning Crescent, 27% of the Moon is Illuminated
Oct 10
Waning Crescent
Oct 15
New
Oct 21
First Quarter
Oct 29
Full
Nov 6
Last Quarter

Hourly Weather History & Observations

Time (CDT) Temp. Windchill Dew Point Humidity Pressure Visibility Wind Dir Wind Speed Gust Speed Precip Events Conditions
12:15 AM 44.6 °F 40.2 °F 35.6 °F 71% 30.21 in 10.0 mi NNE 8.1 mph - N/A   Clear
12:35 AM 42.8 °F 38.0 °F 35.6 °F 76% 30.22 in 10.0 mi North 8.1 mph - N/A   Clear
12:55 AM 41.0 °F 35.8 °F 35.6 °F 81% 30.22 in 10.0 mi North 8.1 mph - N/A   Clear
1:15 AM 41.0 °F 36.4 °F 35.6 °F 81% 30.22 in 10.0 mi North 6.9 mph - N/A   Clear
1:35 AM 41.0 °F 36.4 °F 35.6 °F 81% 30.23 in 10.0 mi North 6.9 mph - N/A   Clear
1:55 AM 39.2 °F 35.0 °F 35.6 °F 87% 30.24 in 10.0 mi North 5.8 mph - N/A   Clear
2:15 AM 37.4 °F 32.8 °F 33.8 °F 87% 30.24 in 10.0 mi North 5.8 mph - N/A   Clear
2:35 AM 35.6 °F 30.7 °F 33.8 °F 93% 30.24 in 10.0 mi North 5.8 mph - N/A   Clear
2:55 AM 35.6 °F 29.2 °F 33.8 °F 93% 30.24 in 10.0 mi North 8.1 mph - N/A   Clear
3:15 AM 35.6 °F 30.7 °F 33.8 °F 93% 30.25 in 10.0 mi North 5.8 mph - N/A   Clear
3:35 AM 35.6 °F 30.7 °F 32.0 °F 87% 30.24 in 10.0 mi North 5.8 mph - N/A   Clear
3:55 AM 35.6 °F 32.8 °F 32.0 °F 87% 30.24 in 10.0 mi North 3.5 mph - N/A   Clear
4:15 AM 33.8 °F 29.6 °F 32.0 °F 93% 30.24 in 10.0 mi North 4.6 mph - N/A   Clear
4:35 AM 35.6 °F 32.8 °F 32.0 °F 87% 30.24 in 10.0 mi NNW 3.5 mph - N/A   Clear
4:55 AM 33.8 °F 30.8 °F 32.0 °F 93% 30.24 in 10.0 mi NNW 3.5 mph - N/A   Clear
5:15 AM 35.6 °F 31.7 °F 32.0 °F 87% 30.24 in 10.0 mi North 4.6 mph - N/A   Clear
5:35 AM 33.8 °F 29.6 °F 32.0 °F 93% 30.25 in 10.0 mi NNW 4.6 mph - N/A   Clear
5:55 AM 33.8 °F 28.6 °F 32.0 °F 93% 30.25 in 10.0 mi NNW 5.8 mph - N/A   Clear
6:15 AM 33.8 °F 29.6 °F 32.0 °F 93% 30.25 in 10.0 mi NNW 4.6 mph - N/A   Clear
6:35 AM 33.8 °F - 32.0 °F 93% 30.26 in 10.0 mi Calm Calm - N/A   Clear
6:55 AM 35.6 °F 32.8 °F 32.0 °F 87% 30.26 in 10.0 mi North 3.5 mph - N/A   Clear
7:15 AM 33.8 °F - 32.0 °F 93% 30.26 in 10.0 mi Calm Calm - N/A   Clear
7:35 AM 35.6 °F - 32.0 °F 87% 30.26 in 10.0 mi Calm Calm - N/A   Clear
7:55 AM 35.6 °F - 32.0 °F 87% 30.26 in 10.0 mi Calm Calm - N/A   Clear
8:35 AM 37.4 °F - 33.8 °F 87% 30.27 in 10.0 mi Calm Calm - N/A   Clear
8:55 AM 41.0 °F 37.1 °F 35.6 °F 81% 30.28 in 10.0 mi ESE 5.8 mph - N/A   Clear
9:15 AM 42.8 °F 38.6 °F 35.6 °F 76% 30.28 in 10.0 mi ESE 6.9 mph - N/A   Clear
9:35 AM 44.6 °F 39.7 °F 35.6 °F 71% 30.29 in 10.0 mi SE 9.2 mph - N/A   Clear
9:55 AM 44.6 °F 39.7 °F 33.8 °F 66% 30.29 in 10.0 mi SE 9.2 mph - N/A   Clear
10:15 AM 46.4 °F 41.9 °F 33.8 °F 62% 30.29 in 10.0 mi SE 9.2 mph - N/A   Clear
10:35 AM 48.2 °F - 33.8 °F 58% 30.30 in 10.0 mi ESE 9.2 mph - N/A   Clear
10:55 AM 50.0 °F - 32.0 °F 50% 30.30 in 10.0 mi SE 9.2 mph - N/A   Clear
11:15 AM 51.8 °F - 32.0 °F 47% 30.29 in 10.0 mi SE 10.4 mph - N/A   Clear
11:55 AM 53.6 °F - 32.0 °F 44% 30.27 in 10.0 mi SE 11.5 mph - N/A   Clear
12:15 PM 55.4 °F - 32.0 °F 41% 30.27 in 10.0 mi ESE 9.2 mph - N/A   Clear
12:35 PM 55.4 °F - 32.0 °F 41% 30.26 in 10.0 mi SE 11.5 mph - N/A   Clear
12:55 PM 55.4 °F - 33.8 °F 44% 30.25 in 10.0 mi SSE 10.4 mph 18.4 mph N/A   Clear
1:15 PM 59.0 °F - 35.6 °F 42% 30.24 in 7.0 mi South 11.5 mph - N/A   Clear
1:35 PM 59.0 °F - 35.6 °F 42% 30.22 in 7.0 mi SE 11.5 mph 16.1 mph N/A   Clear
1:55 PM 60.8 °F - 35.6 °F 39% 30.21 in 10.0 mi South 15.0 mph 19.6 mph N/A   Clear
2:15 PM 62.6 °F - 35.6 °F 37% 30.20 in 7.0 mi South 15.0 mph 18.4 mph N/A   Clear
2:35 PM 62.6 °F - 37.4 °F 39% 30.18 in 5.0 mi South 12.7 mph 17.3 mph N/A   Haze
2:55 PM 62.6 °F - 37.4 °F 39% 30.17 in 7.0 mi South 8.1 mph - N/A   Clear
3:15 PM 62.6 °F - 41.0 °F 45% 30.15 in 10.0 mi SSE 11.5 mph - N/A   Clear
3:35 PM 62.6 °F - 42.8 °F 48% 30.15 in 4.0 mi South 13.8 mph 20.7 mph N/A   Haze
3:55 PM 62.6 °F - 41.0 °F 45% 30.14 in 1.8 mi South 10.4 mph 18.4 mph N/A   Haze
4:15 PM 62.6 °F - 42.8 °F 48% 30.13 in 0.5 mi South 15.0 mph 23.0 mph N/A   Haze
4:35 PM 62.6 °F - 42.8 °F 48% 30.12 in 0.8 mi South 13.8 mph 18.4 mph N/A   Haze
4:55 PM 62.6 °F - 42.8 °F 48% 30.12 in 0.8 mi South 15.0 mph - N/A   Haze
5:15 PM 62.6 °F - 42.8 °F 48% 30.11 in 3.0 mi SSE 16.1 mph - N/A   Haze
5:35 PM 62.6 °F - 42.8 °F 48% 30.10 in 0.8 mi SSE 15.0 mph 19.6 mph N/A   Haze
5:55 PM 62.6 °F - 44.6 °F 52% 30.10 in 1.0 mi South 15.0 mph - N/A   Haze
6:15 PM 62.6 °F - 44.6 °F 52% 30.09 in 2.0 mi South 16.1 mph - N/A   Haze
6:35 PM 60.8 °F - 44.6 °F 55% 30.09 in 1.0 mi South 12.7 mph 17.3 mph N/A   Haze
6:55 PM 59.0 °F - 44.6 °F 59% 30.09 in 7.0 mi SSE 12.7 mph - N/A   Clear
7:15 PM 57.2 °F - 44.6 °F 63% 30.09 in 10.0 mi South 11.5 mph - N/A   Clear
7:35 PM 55.4 °F - 44.6 °F 67% 30.09 in 10.0 mi SSE 12.7 mph - N/A   Clear
7:55 PM 53.6 °F - 44.6 °F 72% 30.09 in 10.0 mi SSE 12.7 mph - N/A   Clear
8:15 PM 53.6 °F - 44.6 °F 72% 30.09 in 10.0 mi SSE 11.5 mph - N/A   Clear
8:35 PM 51.8 °F - 42.8 °F 71% 30.10 in 10.0 mi SSE 10.4 mph - N/A   Clear
8:55 PM 50.0 °F - 42.8 °F 76% 30.10 in 10.0 mi SSE 11.5 mph - N/A   Clear
9:15 PM 50.0 °F - 42.8 °F 76% 30.10 in 10.0 mi SSE 10.4 mph - N/A   Clear
9:35 PM 50.0 °F - 41.0 °F 71% 30.10 in 10.0 mi SSE 10.4 mph - N/A   Clear
9:55 PM 48.2 °F - 41.0 °F 76% 30.09 in 10.0 mi SSE 11.5 mph - N/A   Clear
10:15 PM 46.4 °F 41.1 °F 41.0 °F 81% 30.09 in 10.0 mi SSE 11.5 mph - N/A   Clear
10:35 PM 46.4 °F 41.5 °F 41.0 °F 81% 30.10 in 10.0 mi SSE 10.4 mph - N/A   Clear
10:55 PM 46.4 °F 41.5 °F 41.0 °F 81% 30.10 in 10.0 mi South 10.4 mph - N/A   Clear
11:15 PM 46.4 °F 41.5 °F 42.8 °F 87% 30.10 in 10.0 mi South 10.4 mph - N/A   Clear
11:35 PM 46.4 °F 41.5 °F 42.8 °F 87% 30.10 in 10.0 mi South 10.4 mph - N/A   Clear
11:55 PM 46.4 °F 41.1 °F 42.8 °F 87% 30.09 in 10.0 mi South 11.5 mph - N/A   Clear